Location: Unspecified
(0.0000°N, 0.0000°E)
Time: 23:41:18
(UTC+00:00)

A-11 Canister half - Pass Details

Date: 16 February 2023
Orbit: 1526 x 1682 km, 47.3° (Epoch: 29 March)

Event Time Altitude Azimuth Distance (km) Brightness Sun altitude
Rises 23:53:56 0° 230° (SW) 4,848 - -76.5°
Reaches altitude 10° 23:57:12 10° 235° (SW) 3,839 - -76.8°
Maximum altitude 00:06:36 54° 309° (NW) 1,859 - -77.4°
Drops below altitude 10° 00:15:43 10° 25° (NNE) 3,716 - -77.5°
Sets 00:18:51 0° 30° (NNE) 4,684 - -77.5°
